User: anonymous   Login
Location: Unspecified
(0.0000°N, 0.0000°E)
Time: 11:21:58
(UTC+00:00)
Language:

USA 32 - Orbit

View from above orbital plane
View from above orbital plane
View from above satellite
View from above satellite

Ground track
Ground track

The orbit data is extracted from the following two-line orbital elements,

1 19460U 88078A   18213.33970305 0.00000030  00000-0  10881-4 0    04
2 19460  84.9838 343.9202 0002871 296.1711  63.8287 14.33449067    05
Epoch (UTC): 01 August 2018 08:09:10
Eccentricity: 0.0002871
inclination: 84.9838°
perigee height: 778 km
apogee height: 782 km
right ascension of ascending node: 343.9202°
argument of perigee: 296.1711°
revolutions per day: 14.33449067
mean anomaly at epoch: 63.8287°
orbit number at epoch: 0

The dashed part of the orbit path shows where the satellite is in the earth's shadow,  

DLR